Year,Month,Day,Hour,Minute,Value (Times are PST for temperature in C)
2014,11,15,08,20,0.70
2014,11,15,08,21,0.80
2014,11,15,08,22,0.80
2014,11,15,08,23,0.80
2014,11,15,08,24,0.80
2014,11,15,08,25,0.80
2014,11,15,08,26,0.80
2014,11,15,08,27,0.80
2014,11,15,08,28,0.80
2014,11,15,08,29,0.80
2014,11,15,08,30,0.90
2014,11,15,08,31,0.90
2014,11,15,08,32,0.90
2014,11,15,08,33,1.00
2014,11,15,08,34,1.00
2014,11,15,08,35,1.10
2014,11,15,08,36,1.10
2014,11,15,08,37,1.20
2014,11,15,08,38,1.30
2014,11,15,08,39,1.30
2014,11,15,08,40,1.40
2014,11,15,08,41,1.50
2014,11,15,08,42,1.60
2014,11,15,08,43,1.70
2014,11,15,08,44,1.80
2014,11,15,08,45,1.90
2014,11,15,08,46,2.10
2014,11,15,08,47,2.20
2014,11,15,08,48,2.30
2014,11,15,08,49,2.40
2014,11,15,08,50,2.60
2014,11,15,08,51,2.70
2014,11,15,08,52,2.80
2014,11,15,08,53,2.90
2014,11,15,08,54,3.00
2014,11,15,08,55,3.10
2014,11,15,08,56,3.10
2014,11,15,08,57,3.20
2014,11,15,08,58,3.30
2014,11,15,08,59,3.30
2014,11,15,09,00,3.40
2014,11,15,09,01,3.40
2014,11,15,09,02,3.50
2014,11,15,09,03,3.60
2014,11,15,09,04,3.60
2014,11,15,09,05,3.70
2014,11,15,09,06,3.70
2014,11,15,09,07,3.80
2014,11,15,09,08,3.80
2014,11,15,09,09,3.80
2014,11,15,09,10,3.80
2014,11,15,09,11,3.90
2014,11,15,09,12,3.90
2014,11,15,09,13,3.90
2014,11,15,09,14,4.00
2014,11,15,09,15,4.00
2014,11,15,09,16,4.00
2014,11,15,09,17,4.00
2014,11,15,09,18,4.00
2014,11,15,09,19,4.10
2014,11,15,09,20,4.10
2014,11,15,09,21,4.10
2014,11,15,09,22,4.20
2014,11,15,09,23,4.20
2014,11,15,09,24,4.20
2014,11,15,09,25,4.20
2014,11,15,09,26,4.20
2014,11,15,09,27,4.20
2014,11,15,09,28,4.20
2014,11,15,09,29,4.20
2014,11,15,09,30,4.30
2014,11,15,09,31,4.30
2014,11,15,09,32,4.30
2014,11,15,09,33,4.40
2014,11,15,09,34,4.40
2014,11,15,09,35,4.40
2014,11,15,09,36,4.40
2014,11,15,09,37,4.50
2014,11,15,09,38,4.50
2014,11,15,09,39,4.60
2014,11,15,09,40,4.60
2014,11,15,09,41,4.60
2014,11,15,09,42,4.60
2014,11,15,09,43,4.60
2014,11,15,09,44,4.60
2014,11,15,09,45,4.60
2014,11,15,09,46,4.60
2014,11,15,09,47,4.60
2014,11,15,09,48,4.60
2014,11,15,09,49,4.60
2014,11,15,09,50,4.60
2014,11,15,09,51,4.60
2014,11,15,09,52,4.60
2014,11,15,09,53,4.60
2014,11,15,09,54,4.60
2014,11,15,09,55,4.60
2014,11,15,09,56,4.60
2014,11,15,09,57,4.60
2014,11,15,09,58,4.70
2014,11,15,09,59,4.70
2014,11,15,10,00,4.70
2014,11,15,10,01,4.60
2014,11,15,10,02,4.60
2014,11,15,10,03,4.60
2014,11,15,10,04,4.70
2014,11,15,10,05,4.70
2014,11,15,10,06,4.70
2014,11,15,10,07,4.70
2014,11,15,10,08,4.70
2014,11,15,10,09,4.70
2014,11,15,10,10,4.80
2014,11,15,10,11,4.80
2014,11,15,10,12,4.80
2014,11,15,10,13,4.80
2014,11,15,10,14,4.90
2014,11,15,10,15,4.80
2014,11,15,10,16,4.80
2014,11,15,10,17,4.90
2014,11,15,10,18,4.90
2014,11,15,10,19,4.90
2014,11,15,10,20,4.90
2014,11,15,10,21,4.90
2014,11,15,10,22,4.90
2014,11,15,10,23,4.90
2014,11,15,10,24,5.00
2014,11,15,10,25,5.10
2014,11,15,10,26,5.10
2014,11,15,10,27,5.10
2014,11,15,10,28,5.10
2014,11,15,10,29,5.10
2014,11,15,10,30,5.10
2014,11,15,10,31,5.10
2014,11,15,10,32,5.00
2014,11,15,10,33,4.90
2014,11,15,10,34,5.10
2014,11,15,10,35,5.10
2014,11,15,10,36,5.10
2014,11,15,10,37,5.10
2014,11,15,10,38,5.20
2014,11,15,10,39,5.20
2014,11,15,10,40,5.30
2014,11,15,10,41,5.20
2014,11,15,10,42,5.20
2014,11,15,10,43,5.20
2014,11,15,10,44,5.30
2014,11,15,10,45,5.30
2014,11,15,10,46,5.20
2014,11,15,10,47,5.20
2014,11,15,10,48,5.30
2014,11,15,10,49,5.30
2014,11,15,10,50,5.30
2014,11,15,10,51,5.30
2014,11,15,10,52,5.30
2014,11,15,10,53,5.30
2014,11,15,10,54,5.30
2014,11,15,10,55,5.30
2014,11,15,10,56,5.40
2014,11,15,10,57,5.40
2014,11,15,10,58,5.40
2014,11,15,10,59,5.50
2014,11,15,11,00,5.50
2014,11,15,11,01,5.50
2014,11,15,11,02,5.60
2014,11,15,11,03,5.60
2014,11,15,11,04,5.70
2014,11,15,11,05,5.70
2014,11,15,11,06,5.70
2014,11,15,11,07,5.70
2014,11,15,11,08,5.70
2014,11,15,11,09,5.80
2014,11,15,11,10,5.80
2014,11,15,11,11,5.90
2014,11,15,11,12,5.90
2014,11,15,11,13,6.00
2014,11,15,11,14,6.00
2014,11,15,11,15,6.00
2014,11,15,11,16,6.00
2014,11,15,11,17,6.00
2014,11,15,11,18,6.10
2014,11,15,11,19,6.10
2014,11,15,11,20,6.10
2014,11,15,11,21,6.00
2014,11,15,11,22,6.00
2014,11,15,11,23,6.00
2014,11,15,11,24,6.00
2014,11,15,11,25,6.00
2014,11,15,11,26,6.00
2014,11,15,11,27,6.00
2014,11,15,11,28,5.90
2014,11,15,11,29,5.90
2014,11,15,11,30,5.90
2014,11,15,11,31,5.80
2014,11,15,11,32,5.70
2014,11,15,11,33,5.80
2014,11,15,11,34,5.80
2014,11,15,11,35,5.90
2014,11,15,11,36,5.90
2014,11,15,11,37,5.90
2014,11,15,11,38,6.00
2014,11,15,11,39,6.00
2014,11,15,11,40,6.00
2014,11,15,11,41,6.10
2014,11,15,11,42,6.10
2014,11,15,11,43,6.20
2014,11,15,11,44,6.20
2014,11,15,11,45,6.20
2014,11,15,11,46,6.20
2014,11,15,11,47,6.20
2014,11,15,11,48,6.20
2014,11,15,11,49,6.20
2014,11,15,11,50,6.20
2014,11,15,11,51,6.20
2014,11,15,11,52,6.20
2014,11,15,11,53,6.20
2014,11,15,11,54,6.20
2014,11,15,11,55,6.30
2014,11,15,11,56,6.30
2014,11,15,11,57,6.30
2014,11,15,11,58,6.40
2014,11,15,11,59,6.40
2014,11,15,12,00,6.40
2014,11,15,12,01,6.40
2014,11,15,12,02,6.50
2014,11,15,12,03,6.60
2014,11,15,12,04,6.60
2014,11,15,12,05,6.60
2014,11,15,12,06,6.60
2014,11,15,12,07,6.60
2014,11,15,12,08,6.60
2014,11,15,12,09,6.70
2014,11,15,12,10,6.70
2014,11,15,12,11,6.80
2014,11,15,12,12,6.80
2014,11,15,12,13,6.70
2014,11,15,12,14,6.70
2014,11,15,12,15,6.70
2014,11,15,12,16,6.70
2014,11,15,12,17,6.70
2014,11,15,12,18,6.70
2014,11,15,12,19,6.80
2014,11,15,12,20,6.80
2014,11,15,12,21,6.80
2014,11,15,12,22,6.90
2014,11,15,12,23,6.90
2014,11,15,12,24,6.90
2014,11,15,12,25,7.00
2014,11,15,12,26,7.00
2014,11,15,12,27,6.90
2014,11,15,12,28,6.90
2014,11,15,12,29,6.90
2014,11,15,12,30,6.90
2014,11,15,12,31,7.00
2014,11,15,12,32,7.00
2014,11,15,12,33,7.10
2014,11,15,12,34,7.10
2014,11,15,12,35,7.10
2014,11,15,12,36,7.10
2014,11,15,12,37,7.10
2014,11,15,12,38,7.00
2014,11,15,12,39,6.90
2014,11,15,12,40,6.90
2014,11,15,12,41,6.80
2014,11,15,12,42,6.80
2014,11,15,12,43,6.70
2014,11,15,12,44,6.60
2014,11,15,12,45,6.60
2014,11,15,12,46,6.60
2014,11,15,12,47,6.60
2014,11,15,12,48,6.60
2014,11,15,12,49,6.60
2014,11,15,12,50,6.60
2014,11,15,12,51,6.60
2014,11,15,12,52,6.60
2014,11,15,12,53,6.70
2014,11,15,12,54,6.70
2014,11,15,12,55,6.70
2014,11,15,12,56,6.70
2014,11,15,12,57,6.70
2014,11,15,12,58,6.70
2014,11,15,12,59,6.60
2014,11,15,13,00,6.60
2014,11,15,13,01,6.60
2014,11,15,13,02,6.60
2014,11,15,13,03,6.60
2014,11,15,13,04,6.60
2014,11,15,13,05,6.60
2014,11,15,13,06,6.60
2014,11,15,13,07,6.60
2014,11,15,13,08,6.60
2014,11,15,13,09,6.60
2014,11,15,13,10,6.60
2014,11,15,13,11,6.60
2014,11,15,13,12,6.60
2014,11,15,13,13,6.60
2014,11,15,13,14,6.60
2014,11,15,13,15,6.60
2014,11,15,13,16,6.60
2014,11,15,13,17,6.60
2014,11,15,13,18,6.60
2014,11,15,13,19,6.60
2014,11,15,13,20,6.60
2014,11,15,13,21,6.60
2014,11,15,13,22,6.60
2014,11,15,13,23,6.70
2014,11,15,13,24,6.70
2014,11,15,13,25,6.80
2014,11,15,13,26,6.80
2014,11,15,13,27,6.90
2014,11,15,13,28,6.90
2014,11,15,13,29,6.80
2014,11,15,13,30,6.80
2014,11,15,13,31,6.80
2014,11,15,13,32,6.80
2014,11,15,13,33,6.80
2014,11,15,13,34,6.80
2014,11,15,13,35,6.80
2014,11,15,13,36,6.80
2014,11,15,13,37,6.80
2014,11,15,13,38,6.90
2014,11,15,13,39,7.00
2014,11,15,13,40,7.00
2014,11,15,13,41,7.00
2014,11,15,13,42,7.10
2014,11,15,13,43,7.10
2014,11,15,13,44,7.10
2014,11,15,13,45,7.00
2014,11,15,13,46,7.00
2014,11,15,13,47,6.90
2014,11,15,13,48,6.90
2014,11,15,13,49,6.90
2014,11,15,13,50,6.90
2014,11,15,13,51,6.80
2014,11,15,13,52,6.80
2014,11,15,13,53,6.80
2014,11,15,13,54,6.80
2014,11,15,13,55,6.90
2014,11,15,13,56,6.90
2014,11,15,13,57,7.00
2014,11,15,13,58,7.00
2014,11,15,13,59,7.00
2014,11,15,14,00,7.00
2014,11,15,14,01,7.10
2014,11,15,14,02,7.10
2014,11,15,14,03,7.00
2014,11,15,14,04,7.00
2014,11,15,14,05,6.90
2014,11,15,14,06,6.80
2014,11,15,14,07,6.80
2014,11,15,14,08,6.80
2014,11,15,14,09,6.80
2014,11,15,14,10,6.80
2014,11,15,14,11,6.80
2014,11,15,14,12,6.80
2014,11,15,14,13,6.80
2014,11,15,14,14,6.80
2014,11,15,14,15,6.80
2014,11,15,14,16,6.80
2014,11,15,14,17,6.80
2014,11,15,14,18,6.80
2014,11,15,14,19,6.80
2014,11,15,14,20,6.80
2014,11,15,14,21,6.80
2014,11,15,14,22,6.80
2014,11,15,14,23,6.80
2014,11,15,14,24,6.70
2014,11,15,14,25,6.70
2014,11,15,14,26,6.70
2014,11,15,14,27,6.70
2014,11,15,14,28,6.70
2014,11,15,14,29,6.60
2014,11,15,14,30,6.60
2014,11,15,14,31,6.60
2014,11,15,14,32,6.60
2014,11,15,14,33,6.60
2014,11,15,14,34,6.60
2014,11,15,14,35,6.60
2014,11,15,14,36,6.50
2014,11,15,14,37,6.40
2014,11,15,14,38,6.40
2014,11,15,14,39,6.40
2014,11,15,14,40,6.40
2014,11,15,14,41,6.40
2014,11,15,14,42,6.50
2014,11,15,14,43,6.60
2014,11,15,14,44,6.60
2014,11,15,14,45,6.60
2014,11,15,14,46,6.60
2014,11,15,14,47,6.60
2014,11,15,14,48,6.70
2014,11,15,14,49,6.70
2014,11,15,14,50,6.70
2014,11,15,14,51,6.80
2014,11,15,14,52,6.80
2014,11,15,14,53,6.80
2014,11,15,14,54,6.80
2014,11,15,14,55,6.70
2014,11,15,14,56,6.70
2014,11,15,14,57,6.80
2014,11,15,14,58,6.80
2014,11,15,14,59,6.80
2014,11,15,15,00,6.80
2014,11,15,15,01,6.80
2014,11,15,15,02,6.80
2014,11,15,15,03,6.80
2014,11,15,15,04,6.80
2014,11,15,15,05,6.80
2014,11,15,15,06,6.80
2014,11,15,15,07,6.80
2014,11,15,15,08,6.80
2014,11,15,15,09,6.80
2014,11,15,15,10,6.80
2014,11,15,15,11,6.80
2014,11,15,15,12,6.80
2014,11,15,15,13,6.80
2014,11,15,15,14,6.80
2014,11,15,15,15,6.80
2014,11,15,15,16,6.80
2014,11,15,15,17,6.80
2014,11,15,15,18,6.80
2014,11,15,15,19,6.80
2014,11,15,15,20,6.80
2014,11,15,15,21,6.70
2014,11,15,15,22,6.70
2014,11,15,15,23,6.70
2014,11,15,15,24,6.70
2014,11,15,15,25,6.70
2014,11,15,15,26,6.70
2014,11,15,15,27,6.70
2014,11,15,15,28,6.70
2014,11,15,15,29,6.60
2014,11,15,15,30,6.60
2014,11,15,15,31,6.60
2014,11,15,15,32,6.60
2014,11,15,15,33,6.60
2014,11,15,15,34,6.60
2014,11,15,15,35,6.60
2014,11,15,15,36,6.50
2014,11,15,15,37,6.40
2014,11,15,15,38,6.40
2014,11,15,15,39,6.40
2014,11,15,15,40,6.40
2014,11,15,15,41,6.40
2014,11,15,15,42,6.40
2014,11,15,15,43,6.40
2014,11,15,15,44,6.40
2014,11,15,15,45,6.40
2014,11,15,15,46,6.40
2014,11,15,15,47,6.40
2014,11,15,15,48,6.30
2014,11,15,15,49,6.30
2014,11,15,15,50,6.30
2014,11,15,15,51,6.30
2014,11,15,15,52,6.20
2014,11,15,15,53,6.20
2014,11,15,15,54,6.20
2014,11,15,15,55,6.20
2014,11,15,15,56,6.20
2014,11,15,15,57,6.20
2014,11,15,15,58,6.20
2014,11,15,15,59,6.20
2014,11,15,16,00,6.20
2014,11,15,16,01,6.10
2014,11,15,16,02,6.10
2014,11,15,16,03,6.10
2014,11,15,16,04,6.10
2014,11,15,16,05,6.10
2014,11,15,16,06,6.10
2014,11,15,16,07,6.10
2014,11,15,16,08,6.10
2014,11,15,16,09,6.00
2014,11,15,16,10,6.00
2014,11,15,16,11,6.00
2014,11,15,16,12,6.00
2014,11,15,16,13,6.00
2014,11,15,16,14,6.00
2014,11,15,16,15,6.00
2014,11,15,16,16,5.90
2014,11,15,16,17,5.90
2014,11,15,16,18,5.90
2014,11,15,16,19,5.90
2014,11,15,16,20,5.90
2014,11,15,16,21,5.90
2014,11,15,16,22,5.90
2014,11,15,16,23,5.90
2014,11,15,16,24,5.90
2014,11,15,16,25,5.90
